Satellite-Ground Cal/Val Site Overpasses Predictions

Prediction of Satellite NPP Overpassing Cal/Val Site: Antarctic Dome C

Ground Cal/Val Site Location: Latitude: -75.10, Longitude: 123.35; Satellite-Ground Site NADIR distance within 100 km.

Table of predicted overpasses for the next 14.0 days since TLE Epoch: 11/20/2021
Interval Starting Time Ending Time Minimum Distance Time Minimum Distance (km)
1 11/21/2021 07:33:08 11/21/2021 07:33:37 11/21/2021 07:33:23 7.38
2 11/24/2021 14:56:32 11/24/2021 14:57:00 11/24/2021 14:56:46 24.47
3 11/25/2021 14:37:48 11/25/2021 14:38:04 11/25/2021 14:37:56 82.87
4 11/26/2021 07:39:20 11/26/2021 07:39:47 11/26/2021 07:39:33 42.69
5 11/27/2021 07:20:33 11/27/2021 07:20:54 11/27/2021 07:20:43 67.20
6 11/29/2021 15:02:46 11/29/2021 15:03:09 11/29/2021 15:02:58 61.37
7 11/30/2021 14:43:54 11/30/2021 14:44:19 11/30/2021 14:44:07 48.16
8 12/01/2021 07:45:36 12/01/2021 07:45:54 12/01/2021 07:45:45 77.49
